This is the latest recevied weather packets stored in our database for station/object CA3PBK-13. If no packets are shown the sender has not sent any weather packets the latest 1 day(s).
| Time | Temp. | Humidity | Pressure | Rain* | Wind** | Luminosity | Snow |
|---|---|---|---|---|---|---|---|
| 1778059869 | 11.11° C | 1% | 927.1 hPa | 0 mm | - | - | - |
| 1778059511 | 10.56° C | 1% | 927.2 hPa | 0 mm | - | - | - |
| 1778058910 | 11.11° C | 1% | 927.2 hPa | 0 mm | - | - | - |
| 1778058549 | 11.11° C | 1% | 927.3 hPa | 0 mm | - | - | - |
| 1778058310 | 11.11° C | 1% | 927.3 hPa | 0 mm | - | - | - |
| 1778057948 | 11.11° C | 1% | 927.2 hPa | 0 mm | - | - | - |
| 1778057710 | 11.11° C | 1% | 927.1 hPa | 0 mm | - | - | - |
| 1778057349 | 11.67° C | 1% | 927 hPa | 0 mm | - | - | - |
| 1778057110 | 11.11° C | 1% | 927.1 hPa | 0 mm | - | - | - |
| 1778056510 | 11.11° C | 1% | 927 hPa | 0 mm | - | - | - |
| 1778056029 | 11.11° C | 1% | 926.8 hPa | 0 mm | - | - | - |
| 1778055910 | 11.11° C | 1% | 926.8 hPa | 0 mm | - | - | - |
| 1778055310 | 11.11° C | 1% | 926.6 hPa | 0 mm | - | - | - |
| 1778054710 | 11.67° C | 1% | 926.5 hPa | 0 mm | - | - | - |
| 1778054469 | 11.67° C | 1% | 926.5 hPa | 0 mm | - | - | - |
| 1778054110 | 11.67° C | 1% | 926.4 hPa | 0 mm | - | - | - |
| 1778053988 | 11.67° C | 1% | 926.5 hPa | 0 mm | - | - | - |
| 1778053869 | 11.67° C | 1% | 926.5 hPa | 0 mm | - | - | - |
| 1778053510 | 11.67° C | 1% | 926.4 hPa | 0 mm | - | - | - |
| 1778052910 | 12.22° C | 1% | 926.5 hPa | 0 mm | - | - | - |
| 1778052668 | 12.22° C | 1% | 926.4 hPa | 0 mm | - | - | - |
| 1778052429 | 12.78° C | 1% | 926.3 hPa | 0 mm | - | - | - |
| 1778052310 | 12.78° C | 1% | 926.3 hPa | 0 mm | - | - | - |
| 1778051711 | 12.78° C | 1% | 926.2 hPa | 0 mm | - | - | - |
| 1778051110 | 13.33° C | 1% | 926.5 hPa | 0 mm | - | - | - |
* Rain latest hour (hover to see other rain measurements)
** Current wind speed in m/s (hover to see current wind gust speed)